When you browse on this site, cookies collect data to enhance your experience and personalize the content and advertising you see.
Visit our Privacy Policy to learn more. By continuing to use the site, you agree to this use of cookies and data.
  • In Romania
  • List of Countries
  • For 7 days
  • Water Temperature
  • Satellite Maps
  • Weather Map
  • Weather Widgets
  • user-avatar
    Login

    Hourly Weather Łobez

    Today, 20 May, Monday

    Time Temperature Precipitation Wind Pressure Humidity
    00:00 +16°C° 0.2 mm 2 mps 748 mmHg 95%
    01:00 +16°C° 0 mm 2 mps 748 mmHg 95%
    02:00 +15°C° 0 mm 2 mps 748 mmHg 95%
    03:00 +15°C° 0 mm 2 mps 748 mmHg 95%
    04:00 +15°C° 0 mm 2 mps 748 mmHg 95%
    05:00 +16°C° 0 mm 3 mps 748 mmHg 93%
    06:00 +17°C° 0 mm 3 mps 748 mmHg 90%
    07:00 +19°C° 0 mm 3 mps 748 mmHg 87%
    08:00 +20°C° 0.1 mm 4 mps 747 mmHg 80%
    09:00 +22°C° 0.1 mm 4 mps 747 mmHg 73%
    10:00 +23°C° 0.1 mm 5 mps 747 mmHg 66%
    11:00 +25°C° 0.9 mm 4 mps 747 mmHg 65%
    12:00 +25°C° 0.9 mm 4 mps 747 mmHg 65%
    13:00 +26°C° 0.9 mm 4 mps 746 mmHg 65%
    14:00 +26°C° 1.1 mm 4 mps 746 mmHg 67%
    15:00 +25°C° 1.1 mm 4 mps 746 mmHg 70%
    16:00 +25°C° 1.1 mm 4 mps 746 mmHg 72%
    17:00 +23°C° 0.9 mm 4 mps 746 mmHg 77%
    18:00 +22°C° 0.9 mm 3 mps 745 mmHg 82%
    19:00 +21°C° 0.9 mm 3 mps 745 mmHg 86%
    20:00 +19°C° 0.1 mm 3 mps 746 mmHg 88%
    21:00 +18°C° 0.1 mm 3 mps 746 mmHg 90%
    22:00 +17°C° 0.1 mm 2 mps 746 mmHg 92%
    23:00 +17°C° 0 mm 2 mps 746 mmHg 92%

    Tomorrow, 21 May, Tuesday

    Time Temperature Precipitation Wind Pressure Humidity
    00:00 +16°C° 0 mm 2 mps 746 mmHg 91%
    01:00 +16°C° 0 mm 1 mps 746 mmHg 91%
    02:00 +15°C° 0 mm 1 mps 746 mmHg 91%
    03:00 +15°C° 0 mm 1 mps 746 mmHg 91%
    04:00 +15°C° 0 mm 1 mps 746 mmHg 92%
    05:00 +16°C° 0 mm 1 mps 746 mmHg 88%
    06:00 +19°C° 0 mm 1 mps 746 mmHg 84%
    07:00 +20°C° 0 mm 1 mps 747 mmHg 81%
    08:00 +21°C° 0 mm 1 mps 747 mmHg 75%
    09:00 +21°C° 0 mm 0 mps 747 mmHg 69%
    10:00 +22°C° 0 mm 0 mps 747 mmHg 63%
    11:00 +24°C° 0.2 mm 1 mps 747 mmHg 64%
    12:00 +24°C° 0.2 mm 2 mps 747 mmHg 65%
    13:00 +24°C° 0.2 mm 3 mps 747 mmHg 65%
    14:00 +22°C° 0.8 mm 3 mps 747 mmHg 70%
    15:00 +22°C° 0.8 mm 3 mps 747 mmHg 75%
    16:00 +21°C° 0.8 mm 3 mps 747 mmHg 80%
    17:00 +20°C° 0.1 mm 2 mps 747 mmHg 83%
    18:00 +19°C° 0.1 mm 2 mps 747 mmHg 86%
    19:00 +19°C° 0.1 mm 2 mps 747 mmHg 89%
    20:00 +18°C° 0 mm 2 mps 747 mmHg 91%
    21:00 +16°C° 0 mm 2 mps 747 mmHg 93%
    22:00 +15°C° 0 mm 2 mps 747 mmHg 95%
    23:00 +15°C° 0 mm 2 mps 747 mmHg 96%

    Day after tomorrow, 22 May, Wednesday

    Time Temperature Precipitation Wind Pressure Humidity
    00:00 +14°C° 0 mm 2 mps 747 mmHg 97%
    01:00 +14°C° 0 mm 2 mps 747 mmHg 98%
    02:00 +14°C° 0 mm 2 mps 747 mmHg 98%
    03:00 +13°C° 0 mm 3 mps 747 mmHg 98%
    04:00 +13°C° 0 mm 3 mps 747 mmHg 98%
    05:00 +14°C° 0 mm 3 mps 748 mmHg 97%
    06:00 +14°C° 0 mm 4 mps 748 mmHg 95%
    07:00 +15°C° 0 mm 4 mps 748 mmHg 94%
    08:00 +15°C° 0 mm 4 mps 748 mmHg 94%
    09:00 +15°C° 0 mm 4 mps 749 mmHg 93%
    10:00 +15°C° 0 mm 5 mps 749 mmHg 92%
    11:00 +15°C° 0.1 mm 5 mps 749 mmHg 92%
    12:00 +14°C° 0.1 mm 5 mps 749 mmHg 93%
    13:00 +14°C° 0.1 mm 6 mps 750 mmHg 93%
    14:00 +13°C° 0.1 mm 6 mps 750 mmHg 93%
    15:00 +13°C° 0.1 mm 6 mps 750 mmHg 94%
    16:00 +11°C° 0.1 mm 7 mps 750 mmHg 94%
    17:00 +11°C° 0.3 mm 7 mps 750 mmHg 94%
    18:00 +10°C° 0.3 mm 7 mps 751 mmHg 94%
    19:00 +10°C° 0.3 mm 7 mps 751 mmHg 94%
    20:00 +10°C° 0.5 mm 7 mps 752 mmHg 94%
    21:00 +10°C° 0.5 mm 7 mps 752 mmHg 94%
    22:00 +10°C° 0.5 mm 7 mps 753 mmHg 94%
    23:00 +9°C° 0.4 mm 7 mps 753 mmHg 93%

    23 May, Thursday

    Time Temperature Precipitation Wind Pressure Humidity
    00:00 +9°C° 0.4 mm 7 mps 753 mmHg 92%
    01:00 +9°C° 0.4 mm 7 mps 754 mmHg 91%
    02:00 +8°C° 0.1 mm 6 mps 754 mmHg 92%
    03:00 +8°C° 0.1 mm 6 mps 754 mmHg 92%
    04:00 +7°C° 0.1 mm 5 mps 755 mmHg 92%
    05:00 +8°C° 0 mm 6 mps 755 mmHg 89%
    06:00 +8°C° 0 mm 6 mps 755 mmHg 86%
    07:00 +9°C° 0 mm 6 mps 756 mmHg 82%
    08:00 +10°C° 0 mm 6 mps 756 mmHg 76%
    09:00 +11°C° 0 mm 6 mps 756 mmHg 70%
    10:00 +13°C° 0 mm 6 mps 757 mmHg 64%
    11:00 +14°C° 0 mm 6 mps 757 mmHg 62%
    12:00 +14°C° 0 mm 6 mps 756 mmHg 60%
    13:00 +15°C° 0 mm 6 mps 756 mmHg 58%
    14:00 +15°C° 0 mm 6 mps 756 mmHg 58%
    15:00 +15°C° 0 mm 5 mps 756 mmHg 58%
    16:00 +14°C° 0 mm 5 mps 756 mmHg 58%
    17:00 +13°C° 0 mm 4 mps 756 mmHg 63%
    18:00 +12°C° 0 mm 3 mps 756 mmHg 68%
    19:00 +12°C° 0 mm 2 mps 756 mmHg 73%
    20:00 +10°C° 0 mm 2 mps 756 mmHg 75%
    21:00 +8°C° 0 mm 2 mps 756 mmHg 76%
    22:00 +8°C° 0 mm 1 mps 756 mmHg 77%
    23:00 +8°C° 0 mm 1 mps 756 mmHg 76%

    24 May, Friday

    Time Temperature Precipitation Wind Pressure Humidity
    00:00 +8°C° 0 mm 1 mps 756 mmHg 74%
    01:00 +9°C° 0 mm 1 mps 755 mmHg 73%
    02:00 +8°C° 0 mm 1 mps 755 mmHg 73%
    03:00 +7°C° 0 mm 2 mps 755 mmHg 74%
    04:00 +7°C° 0 mm 2 mps 755 mmHg 75%
    05:00 +9°C° 0 mm 2 mps 754 mmHg 73%
    06:00 +12°C° 0 mm 2 mps 754 mmHg 72%
    07:00 +14°C° 0 mm 2 mps 754 mmHg 70%
    08:00 +15°C° 0 mm 2 mps 754 mmHg 67%
    09:00 +17°C° 0 mm 3 mps 753 mmHg 64%
    10:00 +19°C° 0 mm 3 mps 753 mmHg 61%
    11:00 +19°C° 0.2 mm 3 mps 752 mmHg 61%
    12:00 +19°C° 0.2 mm 3 mps 752 mmHg 62%
    13:00 +20°C° 0.2 mm 3 mps 751 mmHg 62%
    14:00 +20°C° 0.4 mm 3 mps 751 mmHg 65%
    15:00 +20°C° 0.4 mm 3 mps 750 mmHg 67%
    16:00 +19°C° 0.4 mm 2 mps 750 mmHg 69%
    17:00 +19°C° 0.2 mm 2 mps 749 mmHg 72%
    18:00 +18°C° 0.2 mm 2 mps 749 mmHg 76%
    19:00 +17°C° 0.2 mm 2 mps 748 mmHg 79%
    20:00 +17°C° 0 mm 2 mps 748 mmHg 81%
    21:00 +16°C° 0 mm 3 mps 748 mmHg 83%
    22:00 +14°C° 0 mm 4 mps 748 mmHg 86%
    23:00 +13°C° 0 mm 4 mps 748 mmHg 86%

    25 May, Saturday

    Time Temperature Precipitation Wind Pressure Humidity
    00:00 +13°C° 0 mm 4 mps 748 mmHg 86%
    01:00 +12°C° 0 mm 4 mps 747 mmHg 87%
    02:00 +12°C° 0 mm 4 mps 747 mmHg 86%
    03:00 +11°C° 0 mm 4 mps 747 mmHg 85%
    04:00 +11°C° 0 mm 4 mps 747 mmHg 85%
    05:00 +11°C° 1.1 mm 4 mps 747 mmHg 88%
    06:00 +12°C° 1.1 mm 3 mps 748 mmHg 92%
    07:00 +12°C° 1.1 mm 3 mps 748 mmHg 95%
    08:00 +12°C° 1.4 mm 3 mps 748 mmHg 94%
    09:00 +13°C° 1.4 mm 2 mps 748 mmHg 93%
    10:00 +14°C° 1.4 mm 2 mps 748 mmHg 91%
    11:00 +15°C° 0.5 mm 2 mps 749 mmHg 88%
    12:00 +15°C° 0.5 mm 2 mps 749 mmHg 84%
    13:00 +16°C° 0.5 mm 2 mps 749 mmHg 81%
    14:00 +17°C° 0.5 mm 2 mps 749 mmHg 80%
    15:00 +17°C° 0.5 mm 2 mps 748 mmHg 79%
    16:00 +17°C° 0.5 mm 2 mps 748 mmHg 78%
    17:00 +17°C° 0.4 mm 2 mps 748 mmHg 81%
    18:00 +16°C° 0.4 mm 2 mps 748 mmHg 84%
    19:00 +15°C° 0.4 mm 1 mps 748 mmHg 88%
    20:00 +15°C° 0.2 mm 2 mps 748 mmHg 89%
    21:00 +14°C° 0.2 mm 2 mps 748 mmHg 90%
    22:00 +13°C° 0.2 mm 2 mps 749 mmHg 92%
    23:00 +11°C° 0.2 mm 3 mps 749 mmHg 93%
    Show more